Location: Unspecified
(0.0000°N, 0.0000°E)
Time: 11:42:33
(UTC+00:00)

Cosmos 80 Rocket - Pass Details

Date: 25 September 2021
Orbit: 1361 x 1510 km, 56.1° (Epoch: 16 October)

Event Time Altitude Azimuth Distance (km) Brightness Sun altitude
Rises 19:03:43 0° 2° (N) 4,592 8.0 -18.0°
Reaches altitude 10° 19:08:33 10° 24° (NNE) 3,587 7.2 -19.3°
Enters shadow 19:11:32 14° 44° (NE) 3,238 6.8 -20.0°
